(109716) = 2001 RM49

Discovered at Socorro on 2001-09-10 by LINEAR.

Orbit

Orbit type: Main Belt

Note: WebGL enabled browser required.

epoch2023-09-13.0
epoch JD2460200.5
perihelion date2021-03-28.94772
perihelion JD2459302.44772
argument of perihelion (°)38.57352
ascending node (°)201.50937
inclination (°)10.77070
eccentricity0.0501243
perihelion distance (AU)2.8845231
Tisserand w.r.t. Jupiter3.2
ΔV w.r.t. Earth (km/sec)11.1
semimajor axis (AU)3.0367374
mean anomaly (°)167.26097
mean daily motion (°/day)0.18624860
aphelion distance (AU)3.189
period (years)5.29
P-vector [x]-0.50277418
P-vector [y]-0.83219926
P-vector [z]-0.23380015
Q-vector [x]0.86169784
Q-vector [y]-0.50395119
Q-vector [z]-0.05924555
absolute magnitude15.35
phase slope0.15
uncertainty0
referenceMPEC 2024-A74
observations used671
oppositions18
arc length (days)8170
first opposition used2001
last opposition used2024
residual rms (arc-secs)0.73
perturbers coarse indicatorM-v
perturbers precise indicator003Ek
first observation date used2001-08-25.0
last observation date used2024-01-07.0
computer nameMPCLINUX
JD of orbit computation2456670.956433
perihelion JD uncertainty (days)3.0182E-04
argument of perihelion uncertainty (°)5.7836E-05
ascending node uncertainty (°)2.3059E-05
inclination uncertainty (°)7.2130E-06
eccentricity uncertainty 6.9940E-08
perihelion distance uncertainty (AU)2.2584E-07
Minimum Orbit Intersection Distances (in AU)
for orbit epoch: 2460200.5, reference: E2024-A74
Mercury2.42824
Venus2.16384
Earth1.88136
Mars1.29703
Jupiter1.7931
Saturn5.91998
Uranus15.4788
Neptune26.6668

Observations

678 total observations over interval: 2001 08 25.34561 – 2024 01 07.273384
These data are available for download (format description).

Date (UT) J2000 RA J2000 Dec Magn Location Ref
2001 08 25.34561 23 41 15.55 +06 55 24.7 20.1   704 – Lincoln Laboratory ETS, New Mexico MPS 37986
2001 08 25.35855 23 41 15.07 +06 55 19.3 19.2   704 – Lincoln Laboratory ETS, New Mexico MPS 37986
2001 08 25.37128 23 41 14.70 +06 55 17.1 20.3   704 – Lincoln Laboratory ETS, New Mexico MPS 37986
2001 08 25.38400 23 41 14.16 +06 55 12.7 20.2   704 – Lincoln Laboratory ETS, New Mexico MPS 37986
2001 09 10.25266 23 31 06.72 +05 20 41.8 19.5   704 – Lincoln Laboratory ETS, New Mexico MPS 36265
2001 09 10.26691 23 31 06.12 +05 20 36.7 19.8   704 – Lincoln Laboratory ETS, New Mexico MPS 36265
2001 09 10.29474 23 31 04.98 +05 20 23.1 20.2   704 – Lincoln Laboratory ETS, New Mexico MPS 36265
2001 09 10.30866 23 31 04.27 +05 20 18.7 20.0   704 – Lincoln Laboratory ETS, New Mexico MPS 36265
2001 09 16.29723 23 26 54.57 +04 37 32.9 19.6   704 – Lincoln Laboratory ETS, New Mexico MPS 36265
2001 09 16.31156 23 26 54.01 +04 37 26.8 19.7   704 – Lincoln Laboratory ETS, New Mexico MPS 36265
2001 09 16.32589 23 26 53.37 +04 37 20.0 19.6   704 – Lincoln Laboratory ETS, New Mexico MPS 36265
2001 09 16.34030 23 26 52.78 +04 37 13.8 19.5   704 – Lincoln Laboratory ETS, New Mexico MPS 36265
2001 09 16.35549 23 26 52.13 +04 37 07.6 19.0   704 – Lincoln Laboratory ETS, New Mexico MPS 36265
2001 09 20.26348 23 24 10.70 +04 08 00.6 19.5   704 – Lincoln Laboratory ETS, New Mexico MPS 36265
2001 09 20.27868 23 24 10.07 +04 07 54.1 19.6   704 – Lincoln Laboratory ETS, New Mexico MPS 36265
2001 09 20.30887 23 24 08.82 +04 07 40.7 19.6   704 – Lincoln Laboratory ETS, New Mexico MPS 36265
2001 09 28.14002 23 19 01.67 +03 08 14.1 20.0   644 – Palomar Mountain/NEAT MPS 36265
2001 09 28.15981 23 19 00.94 +03 08 05.1 20.0   644 – Palomar Mountain/NEAT MPS 36265
2001 09 28.18036 23 19 00.13 +03 07 55.5 20.1   644 – Palomar Mountain/NEAT MPS 36265
2001 10 14.16958 23 10 47.38 +01 13 02.1 19.6   704 – Lincoln Laboratory ETS, New Mexico MPS 37986
2001 10 14.18530 23 10 47.03 +01 12 55.4 20.3   704 – Lincoln Laboratory ETS, New Mexico MPS 37986
2001 10 14.20102 23 10 46.54 +01 12 50.1 20.4   704 – Lincoln Laboratory ETS, New Mexico MPS 37986
2001 10 14.23254 23 10 45.83 +01 12 36.9 20.4   704 – Lincoln Laboratory ETS, New Mexico MPS 37986
2001 10 14.264200 23 10 44.986 +01 12 23.95 20.20 V 645 – Apache Point-Sloan Digital Sky Survey MPS 79900
2001 10 14.267672 23 10 44.900 +01 12 22.63 21.01   645 – Apache Point-Sloan Digital Sky Survey MPS 79900
2002 11 25.27185 04 36 03.32 +10 53 34.5 20.3   644 – Palomar Mountain/NEAT MPS 98729
2002 11 25.34629 04 35 59.61 +10 53 16.8 20.9   644 – Palomar Mountain/NEAT MPS 98729
2002 11 25.41925 04 35 55.93 +10 52 58.0 20.1   644 – Palomar Mountain/NEAT MPS 98729
2004 01 28.34409 09 54 29.33 -01 20 49.8 19.6   704 – Lincoln Laboratory ETS, New Mexico MPS 98729
2004 01 28.35642 09 54 28.77 -01 20 46.9 20.1   704 – Lincoln Laboratory ETS, New Mexico MPS 98729
2004 01 28.36876 09 54 28.30 -01 20 46.5 19.9   704 – Lincoln Laboratory ETS, New Mexico MPS 98729
2004 01 28.38108 09 54 27.88 -01 20 43.5 19.8   704 – Lincoln Laboratory ETS, New Mexico MPS 98729
2004 02 12.39330 09 43 43.80 -00 18 21.2 19.2   644 – Palomar Mountain/NEAT MPS 98729
2004 02 12.41439 09 43 42.80 -00 18 14.1 19.4   644 – Palomar Mountain/NEAT MPS 98729
2004 02 12.45134 09 43 41.08 -00 18 02.3 19.7   644 – Palomar Mountain/NEAT MPS 98729
2004 02 19.29886 09 38 28.72 +00 21 05.2 19.0   704 – Lincoln Laboratory ETS, New Mexico MPS 98729
2004 02 19.31246 09 38 28.12 +00 21 10.3 19.8   704 – Lincoln Laboratory ETS, New Mexico MPS 98729
2004 02 19.32826 09 38 27.35 +00 21 15.1 19.8   704 – Lincoln Laboratory ETS, New Mexico MPS 98729
2004 02 19.34214 09 38 26.69 +00 21 21.0 19.4   704 – Lincoln Laboratory ETS, New Mexico MPS 98729
2004 02 19.35465 09 38 26.09 +00 21 25.8 19.4   704 – Lincoln Laboratory ETS, New Mexico MPS 98729
2004 03 16.22057 09 22 33.91 +03 13 47.7 19.9   704 – Lincoln Laboratory ETS, New Mexico MPS 101137
2004 03 16.24248 09 22 33.34 +03 13 55.8 20.0   704 – Lincoln Laboratory ETS, New Mexico MPS 101137
2004 03 16.25743 09 22 33.01 +03 14 02.3 19.9   704 – Lincoln Laboratory ETS, New Mexico MPS 101137
2005 05 10.32776 16 03 35.54 -11 01 03.6 19.6 V 691 – Steward Observatory, Kitt Peak-Spacewatch MPS 133904
2005 05 10.34547 16 03 34.73 -11 00 57.3 19.6 V 691 – Steward Observatory, Kitt Peak-Spacewatch MPS 133904
2005 05 10.36338 16 03 33.92 -11 00 50.9 19.6 V 691 – Steward Observatory, Kitt Peak-Spacewatch MPS 133904
2005 05 17.32731 15 58 19.87 -10 20 22.7 18.8 R G96 – Mt. Lemmon Survey MPS 134761
2005 05 17.33272 15 58 19.62 -10 20 21.0 18.5 R G96 – Mt. Lemmon Survey MPS 134761
2005 05 17.33812 15 58 19.34 -10 20 19.3 18.8 R G96 – Mt. Lemmon Survey MPS 134761
2005 05 17.34361 15 58 19.09 -10 20 17.4 18.7 R G96 – Mt. Lemmon Survey MPS 134761
2005 05 20.31016 15 56 01.57 -10 03 59.3 18.9 V G96 – Mt. Lemmon Survey MPS 134761
2005 05 20.31683 15 56 01.24 -10 03 57.2 18.9 V G96 – Mt. Lemmon Survey MPS 134761
2005 05 20.32344 15 56 00.92 -10 03 55.0 18.8 V G96 – Mt. Lemmon Survey MPS 134761
2005 05 20.33001 15 56 00.63 -10 03 53.1 18.6 V G96 – Mt. Lemmon Survey MPS 134761
2005 06 02.25020 15 46 15.88 -09 02 31.0 19.6 V 703 – Catalina Sky Survey MPS 135575
2005 06 02.25661 15 46 15.67 -09 02 30.1 19.6 V 703 – Catalina Sky Survey MPS 135575
2005 06 02.26302 15 46 15.31 -09 02 28.6 19.4 V 703 – Catalina Sky Survey MPS 135575
2005 06 02.26943 15 46 15.13 -09 02 28.0 19.2 V 703 – Catalina Sky Survey MPS 135575
2005 06 03.54873 15 45 21.04 -08 57 18.9 19.2 R E12 – Siding Spring Survey MPS 135575
2005 06 03.55633 15 45 20.67 -08 57 18.3 19.3 R E12 – Siding Spring Survey MPS 135575
2005 06 03.56393 15 45 20.29 -08 57 15.6 19.8 R E12 – Siding Spring Survey MPS 135575
2005 06 03.57155 15 45 19.98 -08 57 14.5 22.0 R E12 – Siding Spring Survey MPS 135575
2005 06 13.25579 15 39 12.81 -08 26 19.8 19.3 V G96 – Mt. Lemmon Survey MPS 136481
2005 06 13.26153 15 39 12.67 -08 26 19.3 19.7 V 291 – LPL/Spacewatch II MPS 136481
2005 06 13.26252 15 39 12.56 -08 26 19.1 19.4 V G96 – Mt. Lemmon Survey MPS 136481
2005 06 13.26557 15 39 12.53 -08 26 18.7 19.7 V 291 – LPL/Spacewatch II MPS 136481
2005 06 13.26926 15 39 12.34 -08 26 17.9 19.4 V G96 – Mt. Lemmon Survey MPS 136481
2005 06 13.27104 15 39 12.34 -08 26 17.7 19.9 V 291 – LPL/Spacewatch II MPS 136481
2005 06 13.27599 15 39 12.13 -08 26 16.8 19.4 V G96 – Mt. Lemmon Survey MPS 136481
2005 06 14.19564 15 38 42.02 -08 24 01.8 20.1 V 291 – LPL/Spacewatch II MPS 136481
2005 06 14.19966 15 38 41.89 -08 24 01.3 20.1 V 291 – LPL/Spacewatch II MPS 136481
2005 06 14.20355 15 38 41.76 -08 24 00.7 20.0 V 291 – LPL/Spacewatch II MPS 136481
2005 06 15.22909 15 38 09.06 -08 21 39.0 19.9 V 691 – Steward Observatory, Kitt Peak-Spacewatch MPS 136481
2005 06 15.24646 15 38 08.49 -08 21 36.7 19.9 V 691 – Steward Observatory, Kitt Peak-Spacewatch MPS 136481
2005 06 15.26724 15 38 07.81 -08 21 33.7 19.9 V 691 – Steward Observatory, Kitt Peak-Spacewatch MPS 136481
2005 06 23.24681 15 34 35.27 -08 08 25.7 20.2   644 – Palomar Mountain/NEAT MPS 136913
2005 06 23.26835 15 34 34.75 -08 08 24.2 20.4   644 – Palomar Mountain/NEAT MPS 136913
2005 06 23.29081 15 34 34.25 -08 08 23.2 20.1   644 – Palomar Mountain/NEAT MPS 136913
2006 08 23.32011 21 58 04.30 +00 53 04.8 19.3 R 644 – Palomar Mountain/NEAT MPS 178100
2006 08 23.34132 21 58 03.38 +00 52 56.9 19.8 R 644 – Palomar Mountain/NEAT MPS 178100
2006 08 23.36247 21 58 02.42 +00 52 49.5 20.3 R 644 – Palomar Mountain/NEAT MPS 178100
2006 08 30.13760 21 53 16.07 +00 09 41.4 19.5 R 699 – Lowell Observatory-LONEOS MPS 178100
2006 08 30.15763 21 53 15.24 +00 09 33.6   699 – Lowell Observatory-LONEOS MPS 178100
2006 08 30.17771 21 53 14.41 +00 09 25.6   699 – Lowell Observatory-LONEOS MPS 178100
2006 08 30.19773 21 53 13.51 +00 09 18.5   699 – Lowell Observatory-LONEOS MPS 178100
2006 09 16.12487 21 43 06.88 -01 46 47.2 20.2 V 691 – Steward Observatory, Kitt Peak-Spacewatch MPS 180594
2006 09 16.14828 21 43 06.19 -01 46 56.8 20.2 V 691 – Steward Observatory, Kitt Peak-Spacewatch MPS 180594
2006 09 16.17169 21 43 05.49 -01 47 06.6 20.1 V 691 – Steward Observatory, Kitt Peak-Spacewatch MPS 180594
